Back to catalog

FREGAT DEB

LostUNKNOWN
NORAD 46099·DEBRIS·🇷🇺 Russia

Launched Jul 18, 2011 from Baikonur Cosmodrome

Loading…

Next Passes (next 24 hours)

TLE

StaleSource: Space-Track

Epoch: Nov 5, 2025, 13:56 UTC

1 46099U 11037JJ  25309.58086435 -.00018656  00000-0 -53444+0 0  9995
2 46099  50.3851  32.5831 0659683 192.4310 165.9454 10.91478031  1639

Track FREGAT DEB in real time with AllMySat

Download on the App Store